Weather in Kungur

Russia / Perm Krai     57°25′43″N   56°56′39″E
temp.,
°C
wind,
m/s
gust,
m/s
humid.,
%
clouds,
%
prec.,
mm/h
press.,
hPa
HPBL,
m
6 may, thu
thu623:00+6w6117596 1.0 1002538
02:00+5wsw612805 0.0 1004527
05:00+4w7127914 0.0 1006890
08:00+4w81271100 0.1 10081245
11:00+6w9125892 0.1 10101682
14:00+9w8114496 0.0 10122074
17:00+12wnw8103956 0.0 10132089
20:00+9w58530 0.0 1014241
7 may, fri
fri723:00+6wsw36670 0.0 101689
02:00+5sw34735 0.0 101755
05:00+5sw3585100 0.0 101965
08:00+9ssw5107699 0.0 1019311
11:00+15sw696248 0.0 1018865
14:00+18sw7945100 0.0 10172331
17:00+16sw595597 0.0 1018812
20:00+14ssw4967100 0.0 1018313
8 may, sat
sat823:00+13ssw31073100 0.0 1018260
02:00+12ssw3976100 0.0 1018219
05:00+11ssw347898 0.0 101871
08:00+13sw2372100 0.0 1019193
11:00+16ssw2258100 0.1 1019528
14:00+18sw1245100 0.4 10181785
17:00+18ssw1145100 0.4 10181331
20:00+16ssw1157100 0.0 101811
9 may, sun
sun923:00+14se226295 0.0 101821
02:00+11se117248 0.0 101810
05:00+10sse11765 0.0 101810
08:00+13ese23655 0.0 1019199
11:00+18se34490 0.0 1018905
14:00+20sse35375 0.0 10182248
17:00+21se443537 0.0 10172273
20:00+17ese345337 0.0 101869
10 may, mon
mon1023:00+14se486183 0.0 1019127
02:00+14se376299 0.0 1019163
05:00+12se2368100 0.0 102048
08:00+14sse3764100 0.0 1021235
11:00+19wsw3451100 0.0 1022819
14:00+20wnw4452100 0.0 10221205
17:00+16nw5672100 0.2 1024559
20:00+12n6878100 0.3 1026526